Stündliche Wetter Holm

Heute, 21 Juni, Montag

Zeit Temperatur Niederschläge Wind Luftdruck Luftfeuchtigkeit
00:00 +21°C° 0 mm 1 m/S 748 mmHg 89%
01:00 +21°C° 0 mm 1 m/S 748 mmHg 91%
02:00 +20°C° 0 mm 1 m/S 748 mmHg 93%
03:00 +21°C° 0 mm 1 m/S 748 mmHg 91%
04:00 +21°C° 0 mm 1 m/S 748 mmHg 89%
05:00 +21°C° 0 mm 1 m/S 748 mmHg 86%
06:00 +23°C° 0 mm 2 m/S 748 mmHg 79%
07:00 +24°C° 0 mm 2 m/S 748 mmHg 71%
08:00 +26°C° 0 mm 2 m/S 748 mmHg 63%
09:00 +27°C° 0 mm 3 m/S 748 mmHg 57%
10:00 +29°C° 0 mm 3 m/S 748 mmHg 50%
11:00 +30°C° 0 mm 3 m/S 748 mmHg 43%
12:00 +31°C° 0 mm 3 m/S 748 mmHg 40%
13:00 +31°C° 0 mm 3 m/S 748 mmHg 37%
14:00 +33°C° 0 mm 3 m/S 747 mmHg 34%
15:00 +33°C° 0 mm 3 m/S 747 mmHg 38%
16:00 +31°C° 0 mm 3 m/S 747 mmHg 42%
17:00 +31°C° 0 mm 3 m/S 747 mmHg 46%
18:00 +28°C° 0 mm 3 m/S 747 mmHg 56%
19:00 +26°C° 0 mm 2 m/S 747 mmHg 65%
20:00 +24°C° 0 mm 2 m/S 747 mmHg 75%
21:00 +23°C° 0 mm 2 m/S 747 mmHg 78%
22:00 +23°C° 0 mm 2 m/S 747 mmHg 81%
23:00 +21°C° 0 mm 3 m/S 747 mmHg 84%

Morgen, 22 Juni, Dienstag

Zeit Temperatur Niederschläge Wind Luftdruck Luftfeuchtigkeit
00:00 +21°C° 0 mm 2 m/S 747 mmHg 88%
01:00 +20°C° 0 mm 2 m/S 747 mmHg 92%
02:00 +19°C° 0 mm 2 m/S 747 mmHg 96%
03:00 +19°C° 0 mm 2 m/S 747 mmHg 95%
04:00 +20°C° 0 mm 2 m/S 747 mmHg 93%
05:00 +20°C° 0 mm 2 m/S 747 mmHg 91%
06:00 +22°C° 0 mm 3 m/S 747 mmHg 82%
07:00 +25°C° 0 mm 3 m/S 747 mmHg 73%
08:00 +26°C° 0 mm 4 m/S 747 mmHg 64%
09:00 +28°C° 0 mm 4 m/S 747 mmHg 58%
10:00 +29°C° 0 mm 4 m/S 748 mmHg 52%
11:00 +30°C° 0 mm 4 m/S 748 mmHg 46%
12:00 +32°C° 0 mm 4 m/S 748 mmHg 44%
13:00 +32°C° 0 mm 4 m/S 747 mmHg 42%
14:00 +33°C° 0 mm 4 m/S 747 mmHg 40%
15:00 +33°C° 0 mm 4 m/S 747 mmHg 42%
16:00 +33°C° 0 mm 3 m/S 747 mmHg 45%
17:00 +31°C° 0 mm 3 m/S 747 mmHg 47%
18:00 +29°C° 0 mm 3 m/S 747 mmHg 57%
19:00 +27°C° 0 mm 2 m/S 747 mmHg 67%
20:00 +25°C° 0 mm 2 m/S 747 mmHg 77%
21:00 +24°C° 0 mm 2 m/S 747 mmHg 81%
22:00 +23°C° 0 mm 2 m/S 747 mmHg 85%
23:00 +21°C° 0 mm 2 m/S 748 mmHg 89%

übermorgen, 23 Juni, Mittwoch

Zeit Temperatur Niederschläge Wind Luftdruck Luftfeuchtigkeit
00:00 +21°C° 0 mm 2 m/S 748 mmHg 91%
01:00 +20°C° 0 mm 2 m/S 748 mmHg 93%
02:00 +20°C° 0 mm 2 m/S 748 mmHg 96%
03:00 +20°C° 0 mm 2 m/S 748 mmHg 94%
04:00 +21°C° 0 mm 1 m/S 748 mmHg 93%
05:00 +22°C° 0 mm 1 m/S 749 mmHg 91%
06:00 +24°C° 0 mm 2 m/S 749 mmHg 82%
07:00 +26°C° 0 mm 2 m/S 749 mmHg 72%
08:00 +28°C° 0 mm 2 m/S 749 mmHg 63%
09:00 +29°C° 0 mm 2 m/S 749 mmHg 56%
10:00 +31°C° 0 mm 3 m/S 749 mmHg 49%
11:00 +33°C° 0 mm 3 m/S 749 mmHg 42%
12:00 +34°C° 0 mm 3 m/S 749 mmHg 40%
13:00 +34°C° 0 mm 3 m/S 749 mmHg 39%
14:00 +35°C° 0 mm 3 m/S 749 mmHg 37%
15:00 +34°C° 0 mm 3 m/S 749 mmHg 41%
16:00 +34°C° 0 mm 3 m/S 749 mmHg 44%
17:00 +34°C° 0 mm 2 m/S 749 mmHg 47%
18:00 +31°C° 0 mm 2 m/S 749 mmHg 57%
19:00 +28°C° 0 mm 2 m/S 749 mmHg 66%
20:00 +26°C° 0 mm 1 m/S 749 mmHg 76%
21:00 +25°C° 0 mm 1 m/S 749 mmHg 77%
22:00 +24°C° 0 mm 1 m/S 749 mmHg 79%
23:00 +24°C° 0 mm 1 m/S 749 mmHg 80%

24 Juni, Donnerstag

Zeit Temperatur Niederschläge Wind Luftdruck Luftfeuchtigkeit
00:00 +23°C° 0 mm 1 m/S 749 mmHg 83%
01:00 +23°C° 0 mm 1 m/S 749 mmHg 85%
02:00 +22°C° 0 mm 1 m/S 749 mmHg 87%
03:00 +22°C° 0 mm 1 m/S 749 mmHg 87%
04:00 +23°C° 0 mm 1 m/S 749 mmHg 86%
05:00 +23°C° 0 mm 1 m/S 749 mmHg 85%
06:00 +25°C° 0 mm 1 m/S 749 mmHg 77%
07:00 +27°C° 0 mm 2 m/S 749 mmHg 68%
08:00 +29°C° 0 mm 2 m/S 749 mmHg 60%
09:00 +30°C° 0 mm 2 m/S 749 mmHg 54%
10:00 +32°C° 0 mm 2 m/S 749 mmHg 48%
11:00 +34°C° 0 mm 2 m/S 749 mmHg 42%
12:00 +34°C° 0 mm 3 m/S 749 mmHg 40%
13:00 +35°C° 0 mm 3 m/S 748 mmHg 38%
14:00 +35°C° 0 mm 3 m/S 748 mmHg 37%
15:00 +35°C° 0 mm 3 m/S 748 mmHg 41%
16:00 +34°C° 0 mm 3 m/S 748 mmHg 46%
17:00 +32°C° 0 mm 2 m/S 748 mmHg 51%
18:00 +31°C° 0 mm 2 m/S 747 mmHg 60%
19:00 +29°C° 0 mm 2 m/S 747 mmHg 69%
20:00 +27°C° 0 mm 2 m/S 746 mmHg 78%
21:00 +26°C° 0 mm 2 m/S 747 mmHg 81%
22:00 +25°C° 0 mm 1 m/S 747 mmHg 84%
23:00 +24°C° 0 mm 1 m/S 747 mmHg 87%

25 Juni, Freitag

Zeit Temperatur Niederschläge Wind Luftdruck Luftfeuchtigkeit
00:00 +23°C° 0.7 mm 1 m/S 747 mmHg 90%
01:00 +22°C° 0.7 mm 1 m/S 747 mmHg 92%
02:00 +20°C° 0.7 mm 0 m/S 747 mmHg 95%
03:00 +22°C° 0.2 mm 1 m/S 747 mmHg 95%
04:00 +22°C° 0.2 mm 1 m/S 746 mmHg 95%
05:00 +23°C° 0.2 mm 1 m/S 746 mmHg 95%
06:00 +24°C° 0 mm 2 m/S 746 mmHg 87%
07:00 +26°C° 0 mm 2 m/S 746 mmHg 79%
08:00 +28°C° 0 mm 3 m/S 746 mmHg 71%
09:00 +29°C° 0 mm 3 m/S 746 mmHg 64%
10:00 +31°C° 0 mm 3 m/S 746 mmHg 57%
11:00 +33°C° 0 mm 3 m/S 746 mmHg 50%
12:00 +34°C° 0 mm 3 m/S 745 mmHg 48%
13:00 +34°C° 0 mm 4 m/S 745 mmHg 46%
14:00 +35°C° 0 mm 4 m/S 745 mmHg 43%
15:00 +34°C° 0 mm 4 m/S 745 mmHg 47%
16:00 +33°C° 0 mm 4 m/S 744 mmHg 51%
17:00 +33°C° 0 mm 3 m/S 744 mmHg 54%
18:00 +30°C° 0 mm 3 m/S 743 mmHg 63%
19:00 +28°C° 0 mm 2 m/S 743 mmHg 71%
20:00 +26°C° 0 mm 2 m/S 743 mmHg 80%
21:00 +25°C° 0 mm 2 m/S 743 mmHg 82%
22:00 +24°C° 0 mm 2 m/S 743 mmHg 85%
23:00 +23°C° 0 mm 2 m/S 743 mmHg 87%

26 Juni, Samstag

Zeit Temperatur Niederschläge Wind Luftdruck Luftfeuchtigkeit
00:00 +23°C° 0 mm 2 m/S 742 mmHg 88%
01:00 +21°C° 0 mm 2 m/S 742 mmHg 88%
02:00 +20°C° 0 mm 2 m/S 742 mmHg 89%
03:00 +21°C° 0 mm 2 m/S 742 mmHg 87%
04:00 +21°C° 0 mm 2 m/S 741 mmHg 85%
05:00 +21°C° 0 mm 2 m/S 741 mmHg 83%
06:00 +24°C° 0 mm 3 m/S 741 mmHg 76%
07:00 +26°C° 0 mm 3 m/S 741 mmHg 70%
08:00 +27°C° 0 mm 3 m/S 741 mmHg 63%
09:00 +29°C° 0 mm 4 m/S 741 mmHg 60%
10:00 +30°C° 0 mm 4 m/S 741 mmHg 57%
11:00 +32°C° 0 mm 4 m/S 740 mmHg 54%
12:00 +32°C° 0.5 mm 4 m/S 740 mmHg 55%
13:00 +32°C° 0.5 mm 4 m/S 740 mmHg 56%
14:00 +32°C° 0.5 mm 4 m/S 740 mmHg 56%
15:00 +28°C° 2.2 mm 4 m/S 739 mmHg 68%
16:00 +26°C° 2.2 mm 3 m/S 739 mmHg 79%
17:00 +22°C° 2.2 mm 3 m/S 739 mmHg 91%
18:00 +21°C° 0.8 mm 3 m/S 739 mmHg 92%
19:00 +20°C° 0.8 mm 3 m/S 739 mmHg 93%
20:00 +20°C° 0.8 mm 3 m/S 738 mmHg 94%
21:00 +19°C° 0.2 mm 2 m/S 738 mmHg 95%
22:00 +19°C° 0.2 mm 2 m/S 738 mmHg 96%
23:00 +19°C° 0.2 mm 1 m/S 739 mmHg 97%
Mehr zeigen

Wir brauchen deine Erlaubnis

Meteoprog und unser Service Anbieter werden persönliche Daten aufbewahren, so wie Cookies, Geräte Bezeichnung oder ähnliche Technologien von deinem Gerät und Prozess, so wie Persönliche Daten Inhalte und Werbungen, genauso wie social Media und den Verkehr zu analysieren.

  • Aufbewahrung und/oder Zugang zu deiner Geräte Informationen.

    Cookies, Geräte Bezeichnung oder andere Informationen, können aufbewahrt oder Zugang zu deinem Gerät erhalten, für den Grund, der oben angegeben wird.

  • Personalisierte Werbung und Inhalte, Messungen, Einblick in das Publikum und Produkt Entwicklung.

    Werbungen und Inhalte können personalisiert werden, basierend auf ein Profil. Mehr Daten können besser personalisierte Werbungen und Inhalte hinzufügen. Werbung und Inhalte können gezeigt und gemessen werden. Einblicke über das Publikum, welche die Werbung gesehen haben und den Inhalt, können abgeleitet werden. So wie Daten können genutzt werden, um es zu verbessern oder die Benutzer Erfahrung zu verbessern das System und die Software.

Wenn du “Ich stimme zu” klickst, erlaubst du uns, die Cookies zu benutzen die Geräte Bezeichnung, den Web oder ähnliche Technologien zu benutzen. Deine Settings, können in deinem Gerät bei deinem Browser geändert werden.

Für den bestimmten Zweck, berechtigten Interessen beruhen darauf, mehr als auf den Inhalt. Du kannst mehr darüber in unseren Privaten und Cookie Politik lesen.